When you browse on this site, cookies collect data to enhance your experience and personalize the content and advertising you see.
Visit our Privacy Policy to learn more. By continuing to use the site, you agree to this use of cookies and data.
  • en France
  • Liste des pays
  • À 7 jours
  • Température de l'eau
  • Carte météo
  • Widgets météo
  • user-avatar
    Se connecter

    Météo par heure à Serowe

    Ce jour, 21 Août, Mercredi

    Heure Température Précipitation Vent Pression Humidité
    00:00 +12°C° 0 mm 5 m/s 673 mmHg 88%
    01:00 +12°C° 0 mm 5 m/s 673 mmHg 90%
    02:00 +10°C° 0 mm 5 m/s 673 mmHg 93%
    03:00 +11°C° 0 mm 6 m/s 673 mmHg 90%
    04:00 +11°C° 0 mm 6 m/s 673 mmHg 88%
    05:00 +11°C° 0 mm 7 m/s 673 mmHg 86%
    06:00 +11°C° 0 mm 7 m/s 674 mmHg 83%
    07:00 +11°C° 0 mm 6 m/s 674 mmHg 80%
    08:00 +11°C° 0 mm 6 m/s 675 mmHg 77%
    09:00 +14°C° 0 mm 6 m/s 675 mmHg 67%
    10:00 +16°C° 0 mm 6 m/s 675 mmHg 56%
    11:00 +19°C° 0 mm 6 m/s 676 mmHg 45%
    12:00 +21°C° 0 mm 6 m/s 675 mmHg 40%
    13:00 +22°C° 0 mm 6 m/s 675 mmHg 36%
    14:00 +23°C° 0 mm 6 m/s 674 mmHg 31%
    15:00 +23°C° 0 mm 6 m/s 674 mmHg 31%
    16:00 +22°C° 0 mm 6 m/s 673 mmHg 31%
    17:00 +22°C° 0 mm 6 m/s 673 mmHg 31%
    18:00 +19°C° 0 mm 5 m/s 673 mmHg 35%
    19:00 +17°C° 0 mm 4 m/s 673 mmHg 39%
    20:00 +13°C° 0 mm 3 m/s 673 mmHg 43%
    21:00 +12°C° 0 mm 3 m/s 673 mmHg 50%
    22:00 +12°C° 0 mm 3 m/s 673 mmHg 56%
    23:00 +11°C° 0 mm 3 m/s 673 mmHg 62%

    Demain, 22 Août, Jeudi

    Heure Température Précipitation Vent Pression Humidité
    00:00 +10°C° 0 mm 3 m/s 672 mmHg 68%
    01:00 +9°C° 0 mm 2 m/s 672 mmHg 74%
    02:00 +8°C° 0 mm 2 m/s 672 mmHg 80%
    03:00 +8°C° 0 mm 2 m/s 672 mmHg 83%
    04:00 +8°C° 0 mm 2 m/s 672 mmHg 86%
    05:00 +7°C° 0 mm 2 m/s 672 mmHg 89%
    06:00 +8°C° 0 mm 2 m/s 672 mmHg 84%
    07:00 +10°C° 0 mm 3 m/s 673 mmHg 78%
    08:00 +11°C° 0 mm 3 m/s 674 mmHg 73%
    09:00 +14°C° 0 mm 4 m/s 674 mmHg 61%
    10:00 +18°C° 0 mm 4 m/s 674 mmHg 48%
    11:00 +21°C° 0 mm 5 m/s 675 mmHg 36%
    12:00 +22°C° 0 mm 5 m/s 674 mmHg 32%
    13:00 +25°C° 0 mm 5 m/s 674 mmHg 28%
    14:00 +26°C° 0 mm 5 m/s 673 mmHg 23%
    15:00 +26°C° 0 mm 5 m/s 673 mmHg 23%
    16:00 +25°C° 0 mm 5 m/s 672 mmHg 23%
    17:00 +25°C° 0 mm 5 m/s 672 mmHg 23%
    18:00 +21°C° 0 mm 4 m/s 672 mmHg 30%
    19:00 +18°C° 0 mm 3 m/s 672 mmHg 37%
    20:00 +15°C° 0 mm 2 m/s 671 mmHg 44%
    21:00 +14°C° 0 mm 1 m/s 671 mmHg 47%
    22:00 +14°C° 0 mm 1 m/s 671 mmHg 49%
    23:00 +13°C° 0 mm 1 m/s 671 mmHg 52%

    Après-demain, 23 Août, Vendredi

    Heure Température Précipitation Vent Pression Humidité
    00:00 +12°C° 0 mm 1 m/s 671 mmHg 53%
    01:00 +12°C° 0 mm 1 m/s 671 mmHg 54%
    02:00 +11°C° 0 mm 1 m/s 670 mmHg 54%
    03:00 +11°C° 0 mm 1 m/s 670 mmHg 56%
    04:00 +10°C° 0 mm 1 m/s 670 mmHg 58%
    05:00 +9°C° 0 mm 0 m/s 670 mmHg 59%
    06:00 +10°C° 0 mm 0 m/s 671 mmHg 53%
    07:00 +13°C° 0 mm 1 m/s 672 mmHg 48%
    08:00 +15°C° 0 mm 1 m/s 673 mmHg 42%
    09:00 +19°C° 0 mm 1 m/s 674 mmHg 35%
    10:00 +21°C° 0 mm 2 m/s 674 mmHg 29%
    11:00 +26°C° 0 mm 3 m/s 675 mmHg 22%
    12:00 +27°C° 0 mm 3 m/s 674 mmHg 19%
    13:00 +28°C° 0 mm 4 m/s 673 mmHg 16%
    14:00 +29°C° 0 mm 4 m/s 673 mmHg 13%
    15:00 +29°C° 0 mm 5 m/s 672 mmHg 13%
    16:00 +28°C° 0 mm 5 m/s 672 mmHg 13%
    17:00 +28°C° 0 mm 5 m/s 672 mmHg 13%
    18:00 +25°C° 0 mm 4 m/s 671 mmHg 18%
    19:00 +20°C° 0 mm 3 m/s 671 mmHg 23%
    20:00 +18°C° 0 mm 1 m/s 671 mmHg 27%
    21:00 +16°C° 0 mm 2 m/s 671 mmHg 31%
    22:00 +15°C° 0 mm 2 m/s 671 mmHg 34%
    23:00 +15°C° 0 mm 2 m/s 671 mmHg 38%

    24 Août, Samedi

    Heure Température Précipitation Vent Pression Humidité
    00:00 +14°C° 0 mm 2 m/s 671 mmHg 40%
    01:00 +13°C° 0 mm 2 m/s 671 mmHg 43%
    02:00 +12°C° 0 mm 2 m/s 671 mmHg 46%
    03:00 +12°C° 0 mm 2 m/s 671 mmHg 47%
    04:00 +10°C° 0 mm 2 m/s 671 mmHg 49%
    05:00 +9°C° 0 mm 2 m/s 671 mmHg 51%
    06:00 +12°C° 0 mm 2 m/s 671 mmHg 47%
    07:00 +13°C° 0 mm 2 m/s 672 mmHg 43%
    08:00 +14°C° 0 mm 3 m/s 673 mmHg 39%
    09:00 +18°C° 0 mm 3 m/s 673 mmHg 32%
    10:00 +21°C° 0 mm 4 m/s 674 mmHg 25%
    11:00 +25°C° 0 mm 5 m/s 675 mmHg 18%
    12:00 +26°C° 0 mm 5 m/s 674 mmHg 15%
    13:00 +28°C° 0 mm 5 m/s 673 mmHg 13%
    14:00 +29°C° 0 mm 5 m/s 673 mmHg 10%
    15:00 +28°C° 0 mm 5 m/s 672 mmHg 10%
    16:00 +27°C° 0 mm 5 m/s 672 mmHg 11%
    17:00 +27°C° 0 mm 5 m/s 671 mmHg 11%
    18:00 +23°C° 0 mm 4 m/s 671 mmHg 15%
    19:00 +20°C° 0 mm 3 m/s 671 mmHg 19%
    20:00 +16°C° 0 mm 3 m/s 671 mmHg 23%
    21:00 +16°C° 0 mm 2 m/s 671 mmHg 25%
    22:00 +15°C° 0 mm 2 m/s 671 mmHg 27%
    23:00 +14°C° 0 mm 2 m/s 671 mmHg 29%

    25 Août, Dimanche

    Heure Température Précipitation Vent Pression Humidité
    00:00 +13°C° 0 mm 2 m/s 671 mmHg 33%
    01:00 +12°C° 0 mm 1 m/s 670 mmHg 37%
    02:00 +11°C° 0 mm 1 m/s 670 mmHg 41%
    03:00 +10°C° 0 mm 1 m/s 670 mmHg 44%
    04:00 +10°C° 0 mm 1 m/s 670 mmHg 47%
    05:00 +9°C° 0 mm 1 m/s 669 mmHg 50%
    06:00 +11°C° 0 mm 1 m/s 670 mmHg 46%
    07:00 +13°C° 0 mm 2 m/s 671 mmHg 42%
    08:00 +15°C° 0 mm 2 m/s 672 mmHg 38%
    09:00 +18°C° 0 mm 3 m/s 672 mmHg 30%
    10:00 +21°C° 0 mm 3 m/s 673 mmHg 23%
    11:00 +26°C° 0 mm 4 m/s 673 mmHg 16%
    12:00 +27°C° 0 mm 4 m/s 673 mmHg 14%
    13:00 +28°C° 0 mm 4 m/s 672 mmHg 12%
    14:00 +30°C° 0 mm 4 m/s 671 mmHg 10%
    15:00 +29°C° 0 mm 4 m/s 671 mmHg 10%
    16:00 +29°C° 0 mm 4 m/s 670 mmHg 10%
    17:00 +28°C° 0 mm 4 m/s 670 mmHg 10%
    18:00 +25°C° 0 mm 3 m/s 670 mmHg 14%
    19:00 +21°C° 0 mm 3 m/s 669 mmHg 18%
    20:00 +17°C° 0 mm 2 m/s 669 mmHg 21%
    21:00 +17°C° 0 mm 2 m/s 669 mmHg 23%
    22:00 +16°C° 0 mm 1 m/s 669 mmHg 24%
    23:00 +15°C° 0 mm 1 m/s 669 mmHg 25%

    26 Août, Lundi

    Heure Température Précipitation Vent Pression Humidité
    00:00 +15°C° 0 mm 1 m/s 669 mmHg 26%
    01:00 +14°C° 0 mm 1 m/s 668 mmHg 26%
    02:00 +14°C° 0 mm 1 m/s 668 mmHg 27%
    03:00 +14°C° 0 mm 1 m/s 668 mmHg 27%
    04:00 +14°C° 0 mm 1 m/s 668 mmHg 26%
    05:00 +14°C° 0 mm 1 m/s 668 mmHg 26%
    06:00 +16°C° 0 mm 1 m/s 669 mmHg 24%
    07:00 +17°C° 0 mm 0 m/s 670 mmHg 21%
    08:00 +19°C° 0 mm 0 m/s 671 mmHg 18%
    09:00 +24°C° 0 mm 1 m/s 671 mmHg 16%
    10:00 +27°C° 0 mm 2 m/s 672 mmHg 13%
    11:00 +29°C° 0 mm 3 m/s 672 mmHg 11%
    12:00 +30°C° 0 mm 3 m/s 672 mmHg 9%
    13:00 +31°C° 0 mm 3 m/s 671 mmHg 8%
    14:00 +33°C° 0 mm 4 m/s 670 mmHg 7%
    15:00 +33°C° 0 mm 3 m/s 670 mmHg 7%
    16:00 +31°C° 0 mm 3 m/s 669 mmHg 8%
    17:00 +31°C° 0 mm 3 m/s 669 mmHg 8%
    18:00 +28°C° 0 mm 3 m/s 669 mmHg 11%
    19:00 +24°C° 0 mm 2 m/s 668 mmHg 13%
    20:00 +21°C° 0 mm 1 m/s 668 mmHg 16%
    21:00 +20°C° 0 mm 1 m/s 668 mmHg 18%
    22:00 +19°C° 0 mm 1 m/s 668 mmHg 19%
    23:00 +18°C° 0 mm 1 m/s 668 mmHg 20%
    Voir plus